Location: Unspecified
(41.1637°N, 24.2901°E)
Time: 17:35:44
(UTC+02:00)

ISS - Pass Details

Date: 19 May 2024
Orbit: 410 x 414 km, 51.6° (Epoch: 18 May)

Event Time Altitude Azimuth Distance (km) Brightness Sun altitude
Rises 21:01:45 0° 302° (WNW) 2,349 1.8 -13.6°
Reaches altitude 10° 21:04:41 10° 330° (NNW) 1,485 0.3 -14.0°
Maximum altitude 21:06:27 14° 2° (N) 1,284 -0.7 -14.2°
Drops below altitude 10° 21:08:14 10° 35° (NE) 1,484 -0.9 -14.5°
Enters shadow 21:11:00 - 62° (ENE) 2,292 -0.2 -14.9°
